Weather in Walsall

United Kingdom     52°35′28″N   1°58′23″W
temp.,
°C
wind,
m/s
gust,
m/s
humid.,
%
clouds,
%
prec.,
mm/h
press.,
hPa
HPBL,
m
8 march, mon
mon800:00+1nw248917 0.0 1026117
03:00+1nw248867 0.0 1025113
06:000w128758 0.0 102438
09:00+4wsw237499 0.0 1025159
12:00+7w246099 0.0 1024623
15:00+9w355994 0.0 10221193
18:00+6w487596 0.1 1022340
21:00+3w397721 0.0 1023253
9 march, tue
tue900:00+2w388517 0.0 1022222
03:00+1wsw25880 0.0 1021159
06:00+1sw35920 0.0 1020146
09:00+4sw34800 0.0 1020215
12:00+6sw46732 0.0 1019382
15:00+6ssw3679100 0.0 1018294
18:00+6ssw4984100 0.0 1017290
21:00+4ssw51282100 0.0 1016512
10 march, wed
wed1000:00+4ssw71584100 0.0 1013640
03:00+5s91787100 0.9 1010893
06:00+5ssw101890100 1.5 1009866
09:00+7ssw91791100 0.3 1008801
12:00+9ssw81490100 0.3 1006735
15:00+9ssw81495100 0.3 1003727
18:00+10ssw81795100 0.4 1000856
21:00+11ssw91991100 0.2 9971195
11 march, thu
thu1100:00+11sw102190100 3.2 9931405
03:00+8sw112173100 0.7 9921911
06:00+7sw122279100 0.9 9901826
09:00+7wsw11207760 0.1 9921735
12:00+9wsw12195276 0.3 9952298
15:00+8wsw11185898 0.6 9962094
18:00+5w9166787 0.9 9991445
21:00+4wsw7156533 0.0 10031218
12 march, fri
fri1200:00+4sw7156740 0.0 10051113
03:00+4sw8168099 0.0 10031153
06:00+5sw7158099 0.1 10011204
09:00+6wsw9156999 1.9 10021521
12:00+8w9145680 1.9 10031845
15:00+8w9145770 0.3 10041639
18:00+5wsw7137285 0.4 10041200
21:00+4sw6148389 0.0 1004869